Location: LDNL
(36.4545°S, 141.6685°E)
Time: 22:55:58
(UTC+11:00)

ISS - Pass Details

Date: 12 December 2021
Orbit: 413 x 422 km, 51.6° (Epoch: 22 January)

Event Time Altitude Azimuth Distance (km) Brightness Sun altitude
Rises 04:01:29 0° 216° (SW) 2,384 0.3 -20.2°
Reaches altitude 10° 04:05:03 10° 177° (S) 1,516 -0.2 -19.7°
Maximum altitude 04:06:00 11° 160° (SSE) 1,461 0.0 -19.6°
Drops below altitude 10° 04:06:58 10° 144° (SE) 1,514 0.3 -19.5°
Sets 04:10:31 0° 105° (ESE) 2,375 1.0 -19.1°
